Pagrindinis puslapis
METAR-TAF:

METAR-TAF

Oro uostai :

Camiri, Bolivija

platuma: 20-00S, ilguma: 063-32W, Aukštis: 798 m

Dabartinis oras

Ataskaita buvo paskelbta 13 valandos ir 49 minutes, ne 19:00 UTC
Vėjas 10 kt iš Šiaurės
Temperatūra 41°C
Drėgmė 17%
Slėgis 1006 hPa
Matomumas 10 km arba daugiau

METAR: SLCA 251900Z 36010KT 9999 NSC 41/11 Q1006

Laikas: 04:49 (08:49 UTC)


TAF: trūkstamas

Orai ataskaitas ir orų prognozės (METAR, TAF).

turimą stotys yra geltonos ir raudonos taškus žemėlapyje.

Perkelti pele per norėdami pamatyti stoties vardą.

Tada spustelėkite, norėdami matyti oro stebėjimo ir prognozės.

Norėdami pakeisti žemėlapį: spustelėkite ant žalios mygtukų su juodo kryžiaus žemyn,; žalią mygtuką su brūkšneliu, jei norite nutolinti; arba žalių rodyklių gretimoms žemėlapius.


METAR-TAF: